Theta_e
325 326 326 325 327 328 326 326 323 323 325 323 321 321 323 330 323 315 333 353 339 341 352 342 338 339 331 335 341 335 334 338 338 337 338 339 340 342 343 343 344 345 344 346 346 347 347 348 348 350 351 351 352 353 354 355 356 357 357 358 359 360 360 359 359 358 357 356 354 351 348 347 347 347 345 344 344 345 346 344 342 341 339 339 339 339 338
324 324 327 325 325 327 327 327 326 324 325 323 322 324 324 326 325 324 335 345 341 343 347 340 337 335 331 334 334 333 336 339 340 340 338 337 339 341 341 342 343 343 344 345 345 346 346 346 347 349 350 351 352 353 354 355 356 357 358 357 359 359 359 359 359 359 358 357 356 354 352 349 346 345 345 344 345 346 347 346 344 343 342 341 340 339 337
323 322 326 326 325 326 325 326 328 325 324 324 323 324 325 325 326 327 331 334 334 337 343 340 331 328 332 335 334 335 337 338 341 343 340 339 340 339 340 342 342 343 343 344 345 346 345 344 346 347 349 351 352 353 354 354 355 356 357 358 358 359 358 358 358 359 359 358 357 356 354 350 347 345 344 344 346 347 348 348 347 346 345 343 340 338 338
323 322 324 325 325 325 323 322 326 325 324 324 323 324 326 326 327 329 328 328 333 341 345 341 333 330 335 341 339 335 335 335 340 343 342 341 340 339 340 340 342 342 343 344 346 346 345 343 345 346 348 350 351 353 354 354 355 356 357 358 358 358 358 358 358 359 359 358 358 357 355 353 349 347 346 346 347 349 349 349 348 348 347 344 341 339 340
326 324 323 324 323 321 319 320 324 327 327 327 325 326 328 328 329 330 326 327 339 351 347 339 335 333 335 338 337 333 335 341 344 344 343 342 339 340 340 340 342 343 342 344 346 345 344 344 344 345 347 349 351 352 352 354 355 356 357 358 358 358 358 358 358 358 358 358 358 357 356 354 352 350 349 349 350 351 351 349 348 348 346 344 343 343 343
327 324 324 324 320 318 323 328 328 328 328 328 329 328 328 329 329 328 328 332 340 348 346 339 337 334 331 331 329 328 333 340 344 344 343 342 341 341 341 342 342 342 343 344 345 345 344 343 342 342 344 346 348 350 352 355 356 357 358 358 357 358 358 358 357 357 358 358 358 358 357 355 354 353 351 351 351 352 352 351 349 347 346 345 345 344 344
327 326 325 321 318 323 336 340 334 330 329 328 333 336 336 335 331 332 340 342 339 342 341 335 332 330 329 331 332 331 331 333 339 344 343 344 344 341 341 342 342 343 343 343 344 345 343 341 340 340 343 346 348 350 354 356 357 357 357 357 358 358 358 358 357 357 357 358 358 358 357 357 356 355 353 353 353 353 353 353 350 347 345 345 345 344 344
328 327 325 322 323 332 342 340 334 335 333 329 335 342 344 345 343 342 349 350 346 348 343 334 330 330 331 336 338 335 333 332 335 340 343 346 346 343 340 340 340 342 344 343 344 343 341 341 341 342 343 345 348 352 355 356 356 357 357 357 357 358 358 358 358 357 357 358 358 359 358 358 356 355 354 354 353 354 354 353 351 350 348 346 346 345 345
329 327 325 326 327 328 332 336 336 338 338 334 339 344 345 349 349 346 350 354 352 351 347 337 333 331 334 343 344 338 335 335 333 334 338 341 343 344 344 344 343 342 343 343 343 343 342 342 342 342 344 345 348 353 355 356 357 357 357 358 357 357 358 358 357 357 358 358 359 359 358 358 356 355 354 353 353 354 355 354 353 352 350 349 348 348 349
333 327 324 325 324 324 333 341 339 338 339 338 343 345 344 350 351 345 351 359 355 354 355 342 335 338 344 350 348 341 337 338 336 334 333 332 332 333 334 339 342 342 342 343 342 342 343 343 343 343 344 345 349 352 354 355 356 357 357 358 357 357 357 358 358 358 358 358 358 358 358 357 356 355 355 353 353 353 354 354 353 351 350 351 351 352 352
334 328 324 323 323 328 340 345 338 332 334 337 344 344 342 353 354 343 346 357 355 355 357 347 345 359 362 354 351 346 340 340 340 338 337 334 333 331 330 332 335 337 340 341 341 343 346 344 342 343 344 345 348 349 350 351 353 355 356 355 356 356 356 357 359 359 359 359 358 358 357 356 355 355 355 354 353 353 353 353 352 352 352 354 354 354 354
334 331 328 326 326 333 339 339 336 332 332 337 341 337 340 356 354 341 343 352 351 347 345 343 352 365 360 351 351 347 341 340 340 338 340 339 335 335 334 334 334 334 335 336 336 341 345 345 343 343 344 346 347 347 347 348 350 352 352 352 353 354 355 357 359 359 360 359 359 358 357 356 355 355 355 355 354 354 353 354 354 354 355 355 356 356 356
335 332 331 329 331 336 336 334 335 335 331 334 336 334 342 351 347 341 343 346 345 342 341 343 349 352 348 347 347 343 341 342 342 342 346 347 344 341 338 336 336 335 336 335 334 336 340 342 342 342 344 348 349 350 350 352 351 347 346 348 351 354 356 357 358 360 360 359 359 358 357 357 356 355 356 356 355 355 355 355 356 356 357 357 358 358 358
336 333 333 333 333 335 333 332 336 335 331 334 336 337 342 342 341 345 347 345 344 344 343 344 346 345 345 346 346 346 346 345 344 346 349 349 349 347 342 338 335 335 336 336 335 336 339 343 345 345 348 350 349 348 351 353 351 347 346 348 351 354 357 358 358 359 359 359 359 359 358 358 358 356 356 357 356 356 357 357 357 357 358 359 358 359 358
336 334 336 338 337 335 332 333 340 342 339 339 340 340 341 341 343 347 348 347 348 346 345 347 347 345 345 344 345 348 348 346 346 347 345 344 348 350 348 344 339 336 335 334 335 335 337 341 343 342 346 350 351 350 351 350 346 344 345 346 351 356 357 358 358 358 357 358 358 359 359 358 358 358 358 358 358 359 358 358 358 359 359 359 359 359 358
337 337 338 338 336 334 333 333 336 339 340 340 340 340 341 343 346 348 349 350 351 349 349 351 349 347 347 346 345 345 346 346 347 347 346 347 350 352 351 350 347 344 340 334 333 335 335 338 342 342 344 348 352 356 357 354 352 351 348 348 353 357 357 356 357 357 356 356 357 358 359 358 358 359 359 359 360 360 359 359 359 359 360 360 359 359 358
337 337 338 337 334 332 332 333 332 334 338 341 341 343 345 345 346 348 349 349 350 351 351 351 351 352 352 351 349 349 348 346 346 347 347 347 347 350 352 353 352 351 349 345 343 344 342 343 348 353 354 353 355 359 360 360 360 359 358 357 357 356 356 356 355 355 355 355 356 358 359 359 359 360 360 360 361 361 361 361 361 361 361 360 359 359 358
336 336 334 334 334 333 331 331 331 332 336 339 340 342 344 345 345 347 346 347 349 350 350 350 352 353 353 353 352 352 351 349 347 347 347 347 347 349 353 356 355 353 352 352 352 353 355 356 358 361 361 359 358 359 359 359 360 360 360 360 359 358 357 355 354 354 355 357 359 360 360 360 360 360 360 361 361 361 363 363 362 362 361 360 360 358 357
336 338 336 333 334 333 330 330 331 331 331 333 335 335 336 340 343 344 344 346 347 347 349 350 350 351 353 353 352 352 352 351 350 349 349 349 348 348 350 354 356 355 354 353 352 352 354 357 360 362 362 362 362 360 359 359 359 358 359 360 360 361 359 357 356 356 357 358 361 362 362 362 362 362 362 362 362 363 364 363 363 363 361 359 358 356 354
336 339 336 332 332 332 329 328 330 330 329 330 331 332 333 336 340 342 341 342 344 345 346 348 349 350 351 351 352 352 351 351 351 351 351 351 352 353 354 355 356 356 356 355 355 354 353 354 356 357 359 360 362 361 361 361 360 360 360 360 360 362 362 362 361 360 361 362 363 364 364 364 364 364 364 364 364 364 364 363 362 360 358 357 355 352 351
336 337 334 334 335 334 330 328 328 328 328 327 328 331 331 331 334 338 339 339 340 341 342 345 348 349 347 348 351 351 350 350 350 349 349 350 351 354 356 356 357 357 356 356 356 355 354 354 355 355 355 356 356 357 357 357 359 360 360 360 362 364 365 365 365 365 365 364 364 364 365 365 365 365 365 365 364 362 361 359 357 354 354 353 352 350 349
338 336 334 335 337 336 330 327 327 328 327 327 327 328 330 330 330 333 335 336 337 338 339 341 344 344 343 346 348 348 349 350 349 349 348 348 347 348 349 351 354 354 354 355 355 354 354 356 356 357 358 358 358 357 357 355 356 359 362 365 366 366 366 366 364 364 364 365 365 365 366 366 366 365 363 361 359 356 354 353 352 351 350 350 349 348 346
336 333 331 331 333 333 329 326 327 327 326 327 326 326 328 329 330 331 333 335 335 336 336 338 339 340 340 343 345 346 346 347 348 350 349 349 348 347 346 346 346 346 346 349 351 353 355 355 354 355 356 355 355 359 362 361 362 364 363 363 364 366 365 361 357 356 358 360 363 364 364 364 364 362 358 355 352 350 348 348 349 349 348 346 346 344 342
332 331 330 330 330 330 327 326 327 327 326 326 326 326 326 327 329 332 334 334 334 334 335 336 337 338 339 340 342 343 344 345 348 349 349 349 350 349 348 348 347 346 346 347 347 348 349 348 346 347 350 350 350 356 359 360 362 363 357 352 353 355 354 352 353 353 351 351 353 357 357 357 357 356 353 350 348 347 346 346 347 346 344 343 342 341 341
331 331 331 330 328 327 326 326 326 326 326 325 325 325 324 323 325 330 333 333 333 334 335 335 336 338 339 340 341 342 343 344 346 347 348 349 349 349 350 350 350 350 351 350 349 347 346 346 344 344 348 350 350 350 351 352 353 353 350 349 350 351 349 348 350 350 347 345 348 352 353 352 352 352 350 346 346 347 347 347 346 344 342 341 341 341 341
330 330 329 328 327 326 326 327 326 325 325 324 324 324 323 321 322 326 329 331 331 332 332 333 333 336 338 338 339 341 342 343 344 346 347 348 348 349 350 350 350 351 351 351 351 349 346 346 345 343 344 346 345 344 347 349 350 350 350 352 353 351 347 346 346 347 348 350 351 351 351 352 352 351 348 345 345 346 346 345 344 342 341 342 342 342 342
330 329 327 327 327 326 325 326 325 324 324 324 323 323 322 320 320 321 323 324 325 326 327 327 327 330 334 337 337 338 339 340 342 344 345 346 347 348 348 348 349 350 349 349 350 348 347 347 346 346 347 349 347 346 347 349 350 351 351 351 352 349 347 346 348 350 352 353 352 351 351 352 352 349 348 347 346 344 342 341 341 341 342 342 341 341 341
330 328 327 327 327 324 323 324 325 324 324 323 322 321 321 320 320 321 321 320 321 321 320 319 319 320 324 329 333 335 334 334 336 339 342 345 346 347 347 348 348 348 348 348 348 347 347 347 347 347 348 348 348 350 350 349 351 351 351 350 351 351 351 351 352 354 354 353 353 353 352 351 350 348 347 346 344 342 340 339 340 341 341 341 340 340 339
329 327 326 325 323 322 321 322 323 324 323 322 321 320 320 320 320 320 320 319 320 321 320 319 319 317 316 318 322 326 328 329 329 331 335 339 342 344 346 346 346 346 347 347 347 347 346 346 346 346 345 343 345 348 349 349 350 351 350 350 351 352 352 353 353 353 353 352 351 350 349 348 348 347 345 344 342 341 340 340 339 339 338 339 339 338 337
328 326 324 324 323 323 321 320 320 321 321 321 321 321 322 321 320 319 319 319 320 321 321 321 321 320 318 316 315 316 318 320 321 323 326 330 334 338 339 340 341 344 345 345 346 346 346 346 345 345 344 344 344 346 347 348 349 349 349 348 348 349 350 350 349 348 347 347 346 345 345 345 345 344 343 342 341 340 339 339 339 338 337 337 337 336 336
326 326 325 325 325 325 324 323 322 322 320 319 319 319 320 320 319 319 319 320 320 320 321 321 322 321 320 319 316 316 316 316 316 317 318 320 325 331 334 336 339 342 344 344 343 343 344 344 344 344 344 344 344 344 346 347 346 345 344 343 344 346 346 345 344 343 343 343 343 343 343 343 343 344 344 342 341 341 340 338 338 338 336 334 334 333 333
325 325 325 324 324 325 325 325 325 324 323 322 322 322 321 320 320 319 319 319 319 320 321 321 322 323 323 322 320 320 320 319 318 318 317 316 318 325 332 335 338 340 341 341 341 341 340 340 341 343 344 344 344 344 344 344 343 342 341 341 342 342 342 341 341 341 340 341 342 343 344 344 343 343 343 341 339 340 340 339 339 338 336 334 333 332 330
324 324 324 323 324 324 324 324 324 324 324 325 325 325 324 323 322 321 321 319 319 319 319 321 322 324 324 323 322 321 321 321 321 322 322 321 319 322 328 333 335 336 338 339 339 339 338 338 340 342 343 343 344 344 344 344 343 341 341 341 340 339 337 337 337 337 337 338 340 341 341 340 339 338 337 337 337 339 339 337 335 333 332 332 332 331 329
321 322 322 323 323 323 323 323 323 324 324 325 325 326 326 325 325 324 323 323 322 321 321 323 325 325 324 323 321 319 319 320 322 324 326 326 325 324 327 330 331 332 334 336 337 337 336 336 337 340 341 342 343 342 343 344 343 342 341 341 340 339 337 335 334 334 335 335 336 337 336 335 334 333 333 333 334 335 334 331 329 328 327 327 327 326 326
319 319 320 321 322 323 323 323 324 325 325 325 325 326 326 326 326 326 325 325 325 324 324 325 326 326 325 323 322 320 319 318 319 320 322 324 325 325 325 327 326 326 328 332 333 331 331 332 333 336 339 341 341 341 341 342 342 342 341 340 339 340 338 335 332 332 332 334 335 337 337 334 333 334 333 330 330 331 331 330 330 329 327 326 325 324 323
321 320 321 322 322 323 324 324 324 325 326 326 326 326 326 326 326 326 326 325 326 326 326 326 326 326 327 327 327 326 325 323 322 322 320 320 321 322 322 322 321 321 324 328 327 323 320 321 324 329 334 337 338 339 340 339 339 340 339 339 338 338 337 334 330 328 329 330 332 334 333 332 332 333 333 331 331 332 332 332 332 331 330 329 327 326 325
322 322 322 323 323 323 324 324 325 325 325 326 326 326 326 326 326 326 326 326 326 326 327 326 326 327 328 329 329 330 330 329 328 326 324 324 325 326 326 323 321 320 323 327 328 325 320 316 316 320 327 333 335 335 336 337 338 338 337 335 334 333 332 331 329 328 330 332 333 332 333 334 335 334 334 333 333 333 333 332 332 332 331 330 328 327 326
322 322 323 323 323 324 324 324 325 325 325 325 325 325 325 326 326 326 326 326 326 326 326 327 327 328 328 329 329 330 330 330 329 328 329 329 330 330 330 329 327 326 326 328 329 327 323 320 317 317 320 326 331 332 332 331 332 334 335 333 331 330 330 331 330 330 332 334 334 334 335 335 335 334 334 333 332 332 332 332 332 331 330 329 327 327 327
322 322 322 322 323 324 324 324 324 325 325 325 325 325 325 325 326 326 326 326 326 326 325 325 326 326 327 327 328 329 329 330 330 330 330 330 331 331 331 330 330 330 331 331 330 329 328 328 327 324 323 326 330 331 329 326 326 329 332 332 331 330 330 331 332 333 333 334 333 333 333 333 332 332 333 332 331 332 332 331 331 330 329 328 328 327 327
322 322 322 322 322 323 323 323 324 324 324 324 324 324 324 325 325 325 326 326 326 326 326 326 326 326 327 327 327 328 328 328 329 329 329 329 329 329 329 328 328 329 329 330 331 331 330 331 331 330 330 330 331 332 331 330 329 330 332 333 332 331 330 331 333 333 332 332 332 332 332 332 331 331 331 331 330 330 330 329 329 328 327 327 327 326 324
322 322 322 322 322 322 322 322 323 323 323 323 323 323 323 323 324 324 325 325 325 325 326 326 326 326 326 326 326 327 327 327 327 328 328 328 328 328 328 328 328 328 328 329 330 330 330 330 329 329 329 330 330 331 331 331 331 331 331 331 330 331 331 332 332 331 330 330 331 331 331 331 330 330 330 329 328 328 328 328 327 327 327 327 326 324 321
321 320 320 320 321 321 321 321 321 321 322 322 322 322 322 322 323 323 322 322 322 322 323 323 323 323 323 323 324 324 323 323 324 325 325 326 327 327 327 327 327 327 328 328 329 328 328 328 328 328 328 328 328 328 329 329 329 329 328 328 328 329 330 330 330 330 329 330 330 330 330 330 330 329 329 328 327 326 326 326 326 326 326 324 323 322 321
319 319 319 319 319 319 320 319 319 320 320 320 320 320 320 321 321 321 321 321 321 321 321 321 320 321 321 321 320 320 320 320 320 321 322 323 324 324 324 324 324 324 326 328 328 328 328 327 326 326 326 327 327 326 327 327 327 327 327 327 327 328 328 328 327 327 328 328 328 328 328 328 328 327 327 326 325 325 324 323 323 324 323 321 320 321 322
319 319 318 319 318 318 318 318 318 318 319 319 319 319 318 319 319 320 321 321 321 321 321 321 320 320 320 320 319 319 318 318 318 319 320 320 321 321 321 321 320 320 321 322 322 323 324 324 323 322 322 324 324 325 326 326 326 326 326 326 326 326 326 326 326 326 326 326 326 326 326 326 325 325 325 324 323 322 322 321 321 321 321 318 317 318 320
318 318 317 317 316 316 317 317 317 317 318 318 318 318 318 317 317 318 317 317 318 318 319 318 318 319 320 319 319 319 318 318 318 318 319 319 320 320 320 320 320 319 319 319 319 319 320 320 321 322 322 323 323 323 324 324 324 324 324 324 324 325 325 325 325 325 325 324 324 324 324 324 324 324 324 322 321 321 322 321 319 319 318 317 316 316 316
316 316 316 316 316 316 316 316 316 316 317 317 317 318 317 317 316 316 316 316 316 316 316 316 317 318 318 317 317 318 318 318 318 317 317 317 318 318 318 318 319 320 320 320 320 320 320 319 320 321 322 322 322 321 321 322 323 323 321 321 323 324 324 323 324 324 323 322 322 322 322 323 322 321 320 320 319 319 320 320 318 317 316 316 315 314 314
316 316 316 316 316 316 316 316 316 316 316 316 316 316 316 316 316 316 316 316 316 316 315 315 315 316 315 315 315 315 316 316 317 316 316 316 316 317 317 317 318 319 320 320 320 320 320 319 319 320 320 321 320 320 320 320 321 320 318 318 320 321 321 321 322 321 321 321 321 320 321 321 320 319 319 319 318 318 318 317 316 315 315 315 314 314 313
316 315 315 315 315 315 315 315 315 315 316 316 316 316 316 316 316 315 316 316 316 316 316 316 315 315 315 315 315 315 315 315 315 315 315 315 315 315 316 316 316 317 318 319 319 319 319 319 319 318 319 319 319 319 319 320 320 319 318 317 317 318 318 319 319 318 319 319 320 320 320 319 319 318 318 318 317 317 316 316 315 315 315 314 314 313 313
315 315 315 315 315 315 315 315 315 315 315 315 315 315 315 315 315 315 315 315 315 315 315 316 316 315 315 315 315 315 315 315 315 315 315 315 315 315 315 315 315 316 316 317 318 318 318 317 318 318 318 319 319 319 319 319 320 320 320 319 318 317 317 317 317 317 317 318 318 318 318 318 317 317 317 316 316 316 315 315 315 315 315 314 314 314 314
314 313 313 313 314 314 314 314 314 315 315 315 315 315 315 315 315 315 315 314 314 314 314 315 315 315 315 315 315 315 315 315 315 315 315 315 315 315 315 315 315 316 316 316 317 317 317 317 317 317 318 318 319 319 319 319 319 319 320 320 320 319 318 318 317 317 316 317 316 317 316 317 316 316 316 316 316 316 315 315 315 315 315 315 314 314 314
310 309 310 310 311 311 312 313 313 313 314 314 314 314 313 314 314 314 314 314 314 314 314 314 314 314 314 314 314 314 314 314 314 314 314 314 314 315 315 315 315 315 315 316 316 316 316 316 316 317 317 317 318 318 318 319 319 319 319 319 320 320 320 319 318 318 317 317 317 317 316 316 316 316 316 316 316 315 315 315 316 315 315 315 315 314 314
308 308 307 308 308 309 309 310 310 310 310 310 311 311 311 312 313 314 314 314 314 314 314 314 314 314 313 313 313 312 312 311 311 310 310 311 311 312 312 312 312 313 313 313 314 314 314 314 315 315 315 316 316 316 316 317 317 318 318 318 318 318 319 319 319 319 318 318 317 317 317 316 316 316 316 316 316 315 315 315 315 315 315 315 314 314 314
Wind_Speed
20 19 16 18 14 8 11 14 15 16 19 21 19 16 10 11 9 11 8 9 10 8 8 8 8 9 10 6 6 10 15 19 26 30 27 26 30 33 35 39 44 46 47 49 52 53 52 52 53 53 53 53 54 54 54 53 53 53 53 53 53 53 53 53 53 52 49 47 46 44 43 44 46 48 49 50 50 49 48 48 46 45 44 44 43 43 43
18 21 18 19 18 12 9 11 14 15 18 21 21 19 14 13 12 10 8 11 11 7 8 9 9 11 10 6 4 7 9 12 16 24 27 26 26 29 32 36 41 45 48 51 51 51 51 51 51 51 52 53 54 54 54 54 55 55 54 54 54 54 54 54 53 51 50 49 48 47 46 46 46 48 49 50 50 50 50 49 48 46 46 45 44 44 44
12 19 20 19 19 17 12 10 12 14 15 18 19 18 15 12 10 8 9 11 10 6 7 8 11 12 10 6 3 8 12 11 12 17 25 30 32 33 37 41 44 47 49 50 50 50 51 51 50 50 52 52 53 54 55 55 56 55 55 55 56 56 55 53 52 51 50 50 49 49 48 47 47 48 49 50 51 51 50 50 48 48 47 46 46 45 45
6 13 20 22 19 17 13 12 12 11 11 14 14 14 12 10 9 7 7 8 7 7 7 8 11 10 10 9 6 8 13 17 16 17 21 28 33 35 36 41 47 48 47 47 48 49 50 50 49 50 51 52 53 54 54 55 56 55 55 56 56 56 55 53 52 52 51 51 51 51 50 49 48 49 49 50 51 51 51 50 48 48 47 47 46 45 45
7 10 16 21 17 13 13 13 13 10 8 9 9 9 11 12 11 8 8 9 8 7 8 8 10 9 8 9 9 10 13 19 22 21 21 25 30 33 36 40 46 47 45 45 48 49 49 49 49 49 50 51 53 55 56 56 56 55 55 56 57 56 55 53 52 51 51 51 51 51 51 50 49 49 50 51 52 52 51 50 48 48 47 47 46 45 45
7 14 12 15 14 12 11 7 9 13 12 11 8 6 8 10 9 6 5 6 7 8 8 9 10 11 7 8 14 13 11 16 23 23 22 25 27 30 35 39 44 47 47 47 48 48 48 48 46 46 48 51 53 54 55 55 54 54 55 56 56 56 55 54 52 51 51 51 52 52 51 50 50 50 52 52 52 52 51 50 49 49 48 47 46 45 44
6 11 7 12 12 11 8 2 4 10 12 13 10 2 1 5 7 4 0 0 3 4 5 8 12 10 6 11 5 1 3 9 19 25 26 26 27 27 28 32 38 43 46 48 49 48 48 47 45 47 49 51 53 54 54 53 53 54 55 55 56 56 56 54 53 52 51 51 51 51 50 50 50 51 52 52 52 51 51 50 50 49 47 46 45 44 43
5 5 5 9 8 5 2 2 3 4 6 10 9 5 5 4 4 4 5 4 4 3 0 4 9 11 15 21 21 16 8 2 9 19 27 30 30 28 25 27 33 38 43 45 46 47 48 47 48 50 51 51 53 54 53 53 53 54 55 55 56 56 56 56 55 53 52 51 51 50 49 49 50 50 51 52 52 51 51 50 49 48 47 45 44 43 42
4 3 5 5 3 3 2 2 1 2 5 9 10 5 3 5 4 3 7 5 4 5 2 2 6 10 13 12 16 18 16 10 5 6 16 20 21 19 19 25 32 35 39 41 43 46 49 51 51 51 50 51 53 54 52 52 53 53 54 55 55 55 56 57 56 55 52 51 50 50 49 49 49 50 50 51 51 50 50 50 49 48 47 45 44 43 42
1 2 4 3 3 5 5 3 3 4 6 8 11 8 1 5 5 0 6 7 5 4 4 3 2 6 8 5 7 12 14 12 11 6 5 7 9 10 11 18 26 31 36 43 46 49 50 51 51 51 50 52 53 54 53 52 53 53 54 55 56 56 57 58 58 57 54 52 51 50 49 49 49 49 49 49 49 49 49 49 49 47 46 45 44 43 42
2 2 4 4 4 4 3 2 2 6 11 11 10 8 1 5 5 2 5 7 6 5 6 6 4 6 6 0 5 7 10 11 11 10 6 3 4 7 8 12 19 25 30 36 42 47 49 48 46 47 48 49 51 52 53 53 53 54 55 57 57 57 58 58 59 58 56 53 52 51 50 49 48 48 48 47 47 47 47 47 47 46 45 44 44 43 41
5 5 5 4 3 2 8 10 9 4 7 12 9 4 3 5 5 1 6 8 6 7 9 10 8 5 4 3 3 5 7 7 8 9 7 6 2 3 5 8 12 17 21 25 29 37 42 43 43 45 48 47 48 50 53 54 55 55 55 56 57 58 59 59 59 59 58 55 53 52 51 49 48 47 46 46 46 45 44 45 45 44 44 44 43 42 41
5 6 6 4 2 3 11 16 19 15 2 7 5 5 7 5 2 6 11 10 9 12 13 11 7 5 6 6 4 5 6 6 7 8 8 8 6 3 3 5 6 9 12 17 22 27 31 36 41 45 48 48 48 49 51 53 54 53 52 52 55 57 59 60 59 59 58 57 55 54 52 50 48 47 47 46 46 45 44 44 43 43 43 43 42 41 40
3 4 6 4 2 3 16 25 23 13 2 4 4 6 9 8 7 11 15 14 13 16 18 14 12 12 13 12 11 9 8 7 8 9 9 10 8 5 2 1 3 4 5 8 14 21 28 35 41 44 46 47 48 48 50 52 53 52 50 50 54 57 59 60 59 58 57 57 56 55 53 51 50 49 48 47 46 45 44 43 42 42 42 41 40 39 37
1 3 5 3 2 5 22 26 16 7 3 5 7 8 9 12 15 16 16 15 15 19 20 18 17 15 14 13 12 10 9 8 7 7 5 3 4 4 2 1 3 4 4 4 7 12 21 30 36 40 42 45 46 48 50 52 53 52 50 50 53 57 58 58 58 58 58 57 56 55 55 53 52 51 50 48 47 46 44 42 41 41 41 40 39 37 34
1 1 2 2 3 10 19 16 6 7 9 3 14 14 9 10 16 19 19 17 18 22 22 20 18 15 14 12 9 8 8 7 5 4 3 2 2 3 3 2 3 4 5 6 6 8 14 22 29 35 40 42 43 46 49 51 50 49 48 51 55 57 56 56 56 55 55 56 56 56 55 55 53 52 50 50 48 46 44 42 41 40 40 39 37 35 32
2 2 4 5 7 12 18 14 10 16 20 13 16 19 17 14 15 20 22 20 21 23 22 20 20 17 15 13 10 9 9 7 5 4 2 1 1 1 1 1 2 3 4 5 7 10 16 21 25 29 33 36 39 42 44 44 43 42 38 38 45 52 54 54 54 54 54 54 55 55 55 56 55 53 51 50 49 45 42 41 40 40 40 39 37 34 32
1 2 5 7 9 13 19 20 20 24 26 22 18 19 20 20 20 23 25 24 23 23 23 22 22 19 16 15 13 11 9 7 6 4 2 3 3 3 3 3 4 4 3 5 8 11 14 18 21 24 27 30 33 37 41 42 42 43 38 32 34 43 50 53 54 54 53 53 53 53 54 55 54 54 53 50 47 45 43 42 40 39 39 38 36 34 31
1 1 2 6 9 11 17 22 26 29 28 24 23 22 18 20 26 26 25 26 27 26 25 26 25 21 19 18 16 13 11 9 8 6 5 4 5 5 5 4 5 7 7 7 9 10 10 11 14 18 23 27 30 34 38 39 38 40 40 36 33 37 44 48 51 52 53 53 53 53 53 53 53 52 51 49 47 46 44 42 39 38 37 36 34 32 30
0 2 3 9 11 9 16 22 24 26 27 24 23 23 19 21 27 28 25 26 28 27 26 27 26 25 23 21 20 18 15 13 12 11 10 8 6 5 5 5 4 6 6 5 6 8 8 7 8 9 13 20 26 31 35 37 35 34 35 35 34 35 39 43 46 50 52 54 54 54 53 53 52 50 48 47 45 42 40 38 38 37 36 34 33 31 28
2 1 4 9 9 7 16 23 24 24 24 22 20 23 23 22 24 28 28 27 27 28 27 26 26 27 26 24 24 23 21 19 16 14 13 12 11 10 8 6 4 2 2 2 3 4 4 6 8 9 9 13 20 25 30 34 34 31 30 32 32 34 38 41 44 47 49 51 54 56 54 52 50 48 46 42 38 35 35 34 33 32 32 31 30 27 24
1 1 3 6 3 2 9 18 21 21 22 21 19 21 24 24 23 26 29 28 28 29 28 27 28 28 26 25 26 26 25 23 21 17 14 12 12 13 11 10 9 7 5 5 3 4 5 2 5 9 10 11 14 18 23 28 28 26 29 34 37 39 41 41 42 45 49 52 55 56 55 53 51 47 42 37 33 32 32 29 25 24 24 24 23 22 21
2 2 4 5 2 1 8 15 17 17 19 20 19 19 21 24 23 25 29 30 30 30 30 29 29 29 27 25 25 25 25 24 23 21 17 14 14 14 13 12 11 10 8 6 4 3 2 1 6 9 9 10 13 16 18 23 25 26 30 35 39 42 45 46 45 45 47 50 51 52 52 52 50 46 41 35 31 28 26 25 24 23 21 20 20 20 19
2 4 6 3 3 4 7 14 17 15 17 20 16 14 16 21 24 27 30 31 31 32 32 31 30 29 28 26 25 25 24 24 24 25 22 18 17 17 16 16 16 14 12 9 7 5 2 2 6 6 7 9 11 11 12 17 23 25 26 28 32 36 40 47 48 45 43 44 46 47 45 42 40 40 39 36 32 28 25 25 24 22 21 20 20 18 17
4 4 5 8 9 7 9 14 16 15 16 18 17 14 13 16 21 26 29 30 30 30 30 30 29 29 28 28 27 27 26 25 25 25 25 24 22 21 21 21 20 19 18 15 13 13 10 5 2 4 6 7 7 9 12 12 15 19 23 27 30 30 30 34 38 38 39 41 39 35 33 32 34 36 37 36 34 32 30 27 23 20 19 19 19 18 18
7 7 10 13 13 10 9 11 14 15 15 15 16 16 13 14 19 24 25 25 24 23 24 25 25 26 27 28 28 27 27 26 25 24 26 27 26 25 24 24 23 23 21 17 14 13 12 10 8 9 11 10 9 11 13 13 13 17 22 26 27 26 25 27 31 34 37 36 31 28 30 34 35 33 31 31 31 31 30 27 24 21 19 19 19 19 19
10 15 16 13 11 9 7 7 12 15 13 12 16 18 13 12 18 23 23 23 23 21 20 20 19 20 22 24 25 25 25 25 24 25 26 27 26 25 24 23 23 24 25 23 19 14 11 10 12 14 16 14 12 12 15 15 15 17 19 20 21 23 24 27 29 30 31 30 30 31 32 31 28 26 25 25 24 23 24 24 25 25 24 21 20 19 19
15 16 12 9 9 10 9 8 10 13 11 11 16 19 15 13 17 22 23 23 22 21 20 19 18 18 18 19 20 21 22 24 24 25 25 24 23 22 21 22 22 23 26 28 26 20 15 12 11 14 16 16 14 13 12 11 12 13 15 18 23 25 24 24 24 24 25 26 27 28 26 24 22 22 21 20 19 19 20 21 24 26 25 22 21 20 18
13 13 12 14 14 14 12 9 9 10 11 10 12 14 12 12 17 21 22 21 21 20 19 18 18 18 18 18 17 18 19 21 23 23 23 22 21 20 20 20 21 23 24 26 27 25 22 18 15 14 14 13 12 11 10 10 11 12 14 18 23 26 26 25 24 24 24 24 23 22 22 22 22 21 19 17 16 17 19 20 22 23 22 21 21 21 20
16 18 21 20 17 16 15 13 11 10 8 6 6 6 7 9 13 17 19 18 18 18 17 15 15 16 17 17 17 17 17 18 19 20 20 21 21 21 19 18 20 23 24 24 24 24 24 22 20 17 15 12 10 13 15 14 14 15 16 17 19 22 25 26 25 24 24 23 23 22 22 22 21 21 21 19 18 17 19 20 20 19 19 19 20 21 21
20 22 22 18 15 14 16 18 17 14 10 8 8 8 8 10 12 14 14 15 15 15 14 13 13 14 16 17 17 16 16 16 16 16 17 19 21 22 21 20 21 23 22 21 21 20 20 22 21 18 14 12 11 14 16 15 13 13 14 15 16 19 21 22 22 22 23 23 23 23 23 22 22 22 22 21 20 19 19 18 18 17 17 18 19 19 19
22 22 22 22 20 17 15 16 15 11 10 13 15 15 14 13 13 12 11 12 12 12 11 11 12 13 13 14 14 15 15 16 16 15 15 16 18 21 21 21 20 20 19 18 18 18 18 18 19 16 13 11 12 14 15 14 14 14 16 16 17 18 18 19 20 21 21 21 21 22 22 23 22 22 21 21 20 19 18 17 17 16 15 15 16 16 16
21 21 20 20 22 21 17 16 15 12 11 12 13 15 16 16 15 14 12 11 11 10 10 10 11 11 10 10 10 11 13 15 16 17 16 16 16 17 18 18 18 18 18 17 18 19 19 18 16 13 11 10 10 12 14 15 15 16 17 18 19 19 19 19 20 20 20 20 20 20 21 21 20 19 20 19 19 18 17 16 15 15 13 13 14 15 16
23 21 17 18 21 21 19 17 17 17 15 13 12 12 13 13 14 14 13 12 12 12 11 11 10 10 9 10 10 9 9 11 13 14 14 14 15 15 16 17 16 16 16 15 15 17 19 18 15 12 10 9 9 10 12 13 14 15 16 17 18 19 19 19 20 20 20 20 19 19 19 18 17 17 17 17 16 17 18 16 14 13 14 15 16 16 16
22 22 21 21 20 19 18 17 17 16 17 17 17 17 16 14 12 12 12 11 11 10 10 9 10 10 11 12 13 13 12 12 13 13 11 11 12 12 13 15 16 16 15 14 13 13 14 15 15 13 10 9 10 11 12 14 15 16 18 18 18 18 18 17 16 15 14 14 15 16 15 14 13 13 13 12 13 16 17 16 14 13 13 14 15 16 16
17 19 19 18 16 15 16 17 16 15 16 17 17 17 16 15 14 14 13 13 12 11 9 9 9 11 13 13 14 15 14 14 14 14 13 12 12 9 8 9 11 11 12 12 12 10 9 9 11 11 9 8 10 12 15 16 16 16 16 16 17 17 16 12 9 7 7 9 11 12 12 12 12 12 12 12 12 14 14 14 14 14 14 14 14 15 16
16 16 16 16 16 16 17 17 16 16 16 16 16 16 16 15 14 13 13 14 15 15 14 13 13 13 14 14 14 14 14 13 13 14 13 12 11 10 9 9 8 7 8 9 9 6 4 4 6 7 7 7 6 8 10 10 10 11 11 10 11 12 10 9 8 9 10 12 13 14 15 15 15 15 15 14 14 14 14 15 16 16 14 14 14 14 14
16 16 17 18 19 19 19 18 17 17 17 18 18 17 17 17 17 16 15 16 16 15 16 16 16 15 14 14 14 14 13 12 11 11 11 11 9 9 11 13 13 11 10 9 9 5 1 0 1 2 3 4 3 3 5 5 5 7 7 7 8 9 9 10 12 13 14 15 15 16 17 17 17 16 16 15 15 15 15 15 15 14 13 13 13 12 11
20 19 20 22 23 23 22 21 20 19 20 20 19 18 17 17 17 18 18 17 15 14 14 14 14 14 14 15 15 15 14 12 11 11 11 12 11 11 12 14 14 13 11 9 7 5 3 1 2 1 1 3 4 3 3 3 4 5 5 7 9 10 10 12 16 18 18 18 16 15 15 15 16 16 16 15 14 14 14 14 13 13 12 12 11 9 7
23 23 23 25 26 25 24 23 22 21 21 22 21 20 19 18 18 18 18 18 17 16 16 16 17 18 19 18 18 16 14 13 12 12 12 12 13 13 14 15 13 12 10 7 5 7 7 6 5 5 4 2 3 5 6 6 8 9 10 11 11 11 12 15 17 18 18 17 14 13 14 16 16 16 16 15 14 14 13 12 12 12 12 11 9 7 6
23 24 24 25 25 24 23 22 22 22 22 22 22 21 21 21 21 21 21 21 21 20 21 22 24 24 24 23 23 21 20 19 17 15 13 14 14 15 16 16 14 12 10 8 5 6 7 8 8 8 8 7 6 6 7 8 10 11 10 9 8 8 9 11 12 12 12 12 13 14 16 18 17 16 16 15 15 13 12 12 11 11 10 9 8 7 7
23 24 24 24 24 23 23 23 23 23 22 22 21 21 21 23 24 25 26 27 27 27 27 27 28 27 26 26 26 26 26 25 24 21 19 19 19 19 18 17 15 12 11 9 7 4 4 4 4 5 6 6 5 3 3 4 5 5 5 4 3 5 6 7 7 8 11 13 13 14 16 17 16 15 13 12 11 10 10 10 10 10 9 8 9 9 8
23 23 22 22 22 21 21 21 21 20 19 19 19 19 19 19 21 22 24 25 25 26 27 27 27 27 27 27 27 28 28 27 26 25 24 23 22 22 21 19 17 15 14 12 11 9 6 5 7 8 6 4 4 4 4 4 4 3 2 1 1 3 5 6 7 9 10 10 10 12 14 15 14 12 11 10 9 8 8 9 10 10 10 9 9 10 10
22 22 22 23 23 23 23 23 22 19 16 15 15 17 18 18 18 19 20 21 21 21 22 23 24 24 25 25 27 28 28 27 26 26 25 24 24 24 23 21 20 20 19 18 18 17 14 11 12 14 13 9 7 7 7 7 7 5 3 3 3 5 6 6 6 7 8 8 8 10 12 12 11 11 12 11 10 10 10 10 10 11 10 8 8 9 10
27 27 27 28 28 28 28 29 28 26 21 16 15 16 19 21 23 23 23 24 24 24 23 23 23 24 24 25 24 23 23 24 25 25 25 24 23 21 20 19 20 21 20 20 21 21 19 14 10 10 12 13 10 8 7 8 8 7 5 4 4 5 6 6 6 7 7 7 7 8 9 9 9 10 11 12 11 11 11 12 11 10 9 8 8 9 9
30 29 29 29 30 31 30 29 29 29 27 25 24 24 24 25 27 27 26 26 26 26 25 25 24 23 23 22 21 20 20 22 23 23 23 22 21 19 17 17 18 18 17 19 20 22 22 18 11 7 9 13 13 12 10 9 8 6 5 5 3 3 2 2 3 5 5 5 5 6 8 9 9 9 10 11 10 10 11 13 12 10 9 8 8 7 6
28 28 28 28 29 29 29 28 28 29 28 29 30 29 27 26 26 26 25 24 24 23 23 23 23 22 21 20 20 20 20 21 21 20 19 18 17 17 16 16 16 14 14 15 17 18 19 18 15 10 7 8 10 12 12 11 10 9 9 9 7 5 3 2 1 3 4 4 4 5 6 8 8 8 9 8 8 9 11 12 11 9 8 6 6 6 6
27 27 27 27 27 27 27 28 30 29 28 26 26 24 22 21 22 21 22 22 22 20 19 19 19 19 18 18 18 18 17 18 20 20 17 14 14 15 15 14 13 12 11 11 12 13 13 14 14 11 7 6 7 8 8 8 9 10 12 12 11 8 6 5 5 4 4 6 6 7 7 8 9 9 9 8 8 9 10 9 8 7 7 8 8 9 9
26 26 26 26 26 26 26 27 28 28 26 24 23 21 19 18 18 18 17 18 18 18 17 16 16 16 15 15 14 14 14 15 18 19 16 13 12 12 12 11 11 11 10 10 10 11 11 11 11 10 8 6 6 7 6 6 6 6 7 9 10 9 8 7 7 6 7 8 7 6 6 6 7 8 10 10 10 10 10 9 8 8 9 9 10 10 11
25 25 25 26 26 26 26 26 25 24 22 22 21 20 19 18 18 18 17 16 15 16 15 15 14 14 13 12 12 11 11 12 13 14 13 12 12 12 11 11 10 10 9 9 9 10 10 10 10 11 10 8 7 6 6 6 7 7 5 4 5 6 7 7 7 7 8 8 7 6 6 6 6 7 9 10 11 10 10 10 10 10 11 12 12 13 13
26 26 26 25 24 24 24 24 23 22 21 19 18 17 17 17 16 15 15 15 15 14 13 14 14 14 12 12 12 12 11 11 12 11 11 11 11 11 11 11 11 10 9 10 10 11 12 11 11 11 11 10 9 8 7 6 6 6 6 6 5 4 3 2 3 4 6 6 6 6 6 7 8 9 10 10 11 11 11 11 11 11 12 13 14 15 15
28 27 26 25 25 25 24 23 22 22 21 20 19 19 19 17 15 13 13 13 12 11 10 11 13 13 12 11 11 12 12 12 13 13 12 12 11 10 10 10 11 11 11 10 10 11 12 12 12 12 11 11 10 9 8 7 6 5 5 5 5 5 5 5 4 3 3 4 5 5 6 7 8 9 9 10 10 10 10 10 11 12 13 14 14 15 14
Wind_Direction
218 204 206 211 207 193 194 203 203 195 198 201 204 209 187 148 186 230 205 184 208 226 240 244 236 239 247 251 246 237 228 212 190 184 196 207 208 210 207 203 202 202 202 205 206 205 205 207 208 208 209 211 212 212 211 211 211 212 213 214 214 214 215 217 220 222 223 224 225 226 226 227 227 226 227 228 228 230 231 232 233 234 235 236 237 239 240
228 210 207 210 215 210 196 205 206 197 197 201 207 212 194 181 205 211 182 200 219 222 228 231 234 242 246 244 220 193 208 226 200 183 186 194 203 212 214 211 207 205 207 208 207 205 205 207 208 208 209 211 211 212 211 211 212 213 212 213 214 214 216 220 221 221 222 224 224 225 225 226 227 227 227 228 228 229 231 232 233 233 234 235 237 239 241
241 216 207 207 216 213 202 205 206 204 204 202 207 212 201 197 215 204 185 211 233 241 236 238 242 239 230 231 205 159 176 206 216 202 194 190 193 200 209 214 214 211 211 210 207 203 204 209 211 211 213 213 213 213 212 212 213 212 211 213 214 215 218 221 221 220 222 223 224 224 225 226 227 227 227 228 228 229 230 231 232 232 233 234 237 239 241
273 228 210 207 216 217 213 215 208 203 206 206 209 208 195 188 198 197 195 213 238 250 234 234 243 230 214 223 208 160 180 196 200 205 201 194 193 195 202 211 213 212 210 208 205 202 206 212 214 214 216 215 213 213 213 213 213 211 211 213 214 216 219 221 221 221 222 223 223 224 225 225 227 227 227 227 227 228 229 230 231 232 233 235 237 239 240
302 269 223 205 208 219 226 224 205 186 194 211 216 213 205 196 185 181 203 215 219 220 204 209 234 229 210 218 207 174 177 190 193 198 199 198 199 200 203 207 208 209 209 207 204 204 208 213 215 217 218 217 216 217 216 215 212 210 211 213 214 217 218 219 222 223 223 223 223 224 225 226 226 226 226 227 226 226 228 230 231 232 234 236 238 239 241
290 293 253 202 198 217 231 225 178 172 188 199 199 213 222 219 212 203 219 225 216 218 205 189 212 230 219 216 221 209 184 182 187 190 195 200 202 203 205 207 207 207 208 208 206 206 210 214 216 219 221 221 222 221 218 214 210 210 211 213 214 217 217 218 222 223 223 223 223 224 225 226 225 226 226 226 226 226 227 228 230 232 235 237 238 240 242
270 296 260 196 198 215 230 258 158 176 191 183 166 154 278 248 243 233 52 21 202 228 234 194 196 206 141 96 89 257 250 216 198 189 191 195 196 198 202 208 210 208 206 206 206 208 212 216 217 219 220 221 222 221 216 213 211 211 212 213 215 216 217 218 221 222 223 224 225 225 225 225 225 226 226 225 225 225 226 227 230 233 235 236 238 240 242
254 283 239 208 214 213 209 7 50 116 160 158 135 65 1 325 269 180 129 122 136 114 354 201 177 158 117 82 58 51 50 312 220 199 195 193 193 197 202 210 213 210 207 207 207 210 215 217 218 219 219 220 220 218 216 214 214 213 213 214 216 216 217 218 220 222 223 224 224 224 224 224 225 225 226 226 226 225 225 227 230 232 234 236 238 240 241
225 254 258 243 232 189 144 55 39 127 156 159 139 111 322 321 336 144 140 131 120 104 74 232 166 135 111 72 38 43 58 49 38 179 189 191 195 201 204 210 212 211 211 211 212 217 220 219 219 219 220 221 219 217 215 215 215 215 215 215 216 217 218 219 220 221 223 223 224 223 223 223 224 225 225 226 226 225 225 227 229 231 234 236 238 239 241
219 251 257 233 196 204 202 210 222 174 144 140 124 107 357 311 330 125 137 120 110 99 55 6 181 123 88 58 4 26 49 49 40 63 150 188 207 210 203 208 213 215 216 215 216 219 220 218 219 221 221 220 218 216 216 216 216 215 215 217 218 219 220 221 221 221 222 223 223 223 223 223 224 225 224 225 226 227 227 229 231 233 235 236 238 240 242
339 302 252 224 186 210 244 271 216 163 141 123 97 82 19 286 296 295 122 105 93 101 84 64 76 89 82 131 290 9 52 60 48 47 60 89 174 191 186 196 207 215 219 220 221 223 223 221 222 226 226 222 219 219 218 218 216 215 217 219 220 221 224 224 222 221 221 222 223 222 223 224 224 224 225 225 226 227 229 231 233 234 235 235 237 240 242
340 328 283 242 158 24 347 348 328 273 145 110 88 94 222 265 288 358 100 99 88 96 100 84 76 91 125 192 290 16 56 76 68 61 56 56 94 170 166 171 188 203 214 221 225 228 228 225 225 230 230 225 222 223 222 219 217 218 221 223 224 225 226 226 223 221 220 221 223 223 224 224 224 225 225 224 225 226 228 230 232 233 234 235 237 239 241
336 320 291 262 153 26 355 344 323 307 301 108 112 183 201 228 255 87 89 92 89 84 85 84 86 105 116 109 78 51 57 67 69 78 96 109 117 131 146 159 171 184 201 216 224 229 229 224 223 227 228 223 221 224 222 218 218 222 226 227 227 227 226 224 223 221 220 221 222 224 224 223 222 223 224 223 224 225 226 227 229 230 232 233 235 237 239
336 301 285 282 178 33 353 337 323 321 359 167 193 180 162 145 114 93 87 88 89 84 84 87 89 89 89 86 80 73 70 65 64 80 104 113 112 112 116 213 230 211 206 215 221 226 229 227 225 227 228 227 227 228 225 223 225 227 228 228 228 227 225 224 222 222 221 221 221 221 220 220 220 220 221 222 223 223 223 223 226 227 229 230 231 233 235
6 291 291 316 229 327 346 340 332 1 40 185 161 130 133 121 102 91 83 82 89 93 90 87 83 80 79 75 69 68 70 65 65 79 92 83 81 98 103 349 280 259 245 228 221 226 230 231 231 230 230 231 231 230 229 230 232 232 231 232 231 227 224 223 222 222 221 220 218 216 216 217 218 218 218 218 219 219 219 220 222 224 226 226 227 228 228
83 249 293 346 256 302 336 341 316 339 346 138 133 117 108 100 98 96 85 77 89 99 95 87 83 78 71 64 56 48 48 43 42 62 79 75 76 77 69 27 331 307 280 262 255 239 231 232 235 236 236 235 231 228 228 231 233 233 233 232 229 225 224 224 223 221 219 217 216 213 213 214 215 214 215 215 215 215 217 218 219 220 222 222 223 223 223
148 196 258 286 290 310 333 338 330 353 11 50 102 106 101 91 91 98 95 89 95 103 101 92 84 77 70 65 56 44 37 26 13 22 36 3 303 336 340 268 265 301 296 271 250 232 226 230 235 238 238 235 231 227 228 229 231 232 235 234 228 224 223 223 222 220 217 214 212 211 209 209 210 211 212 211 210 210 212 214 215 216 218 218 219 219 220
193 210 248 282 310 327 343 355 9 23 35 47 61 74 86 92 92 94 97 97 97 101 105 98 87 80 79 76 69 60 51 35 16 1 327 293 279 266 254 226 199 183 183 197 201 208 215 220 224 230 233 232 231 230 230 232 234 234 235 236 234 230 225 222 221 218 213 209 207 205 205 205 208 210 211 209 208 207 208 210 212 213 214 214 215 218 220
350 208 258 300 314 332 354 9 23 31 36 49 60 58 63 85 96 94 93 96 96 95 97 97 92 86 85 83 78 73 69 58 43 29 6 332 303 287 290 272 215 200 201 194 190 196 200 199 207 218 223 225 228 231 234 235 238 238 235 231 232 232 227 221 217 213 208 204 201 198 198 200 202 206 208 208 205 204 203 204 206 209 212 213 213 214 214
246 201 298 313 311 344 19 25 28 27 26 38 62 68 65 78 94 98 94 94 97 95 94 97 96 89 83 82 81 77 73 70 63 55 47 33 8 344 334 315 260 228 220 201 194 204 205 200 205 215 221 225 227 232 237 239 241 242 236 229 225 225 221 216 210 206 202 199 195 193 193 195 197 200 202 202 201 201 203 205 207 208 209 210 209 208 207
318 275 346 333 319 348 23 26 30 35 34 35 54 75 76 70 81 94 95 91 93 95 95 98 99 93 85 82 82 78 73 71 68 66 63 55 47 41 31 15 354 287 215 163 164 183 195 213 225 231 242 243 239 238 240 241 241 238 230 223 218 215 212 207 201 197 193 190 190 189 188 190 193 194 196 198 201 203 205 207 210 209 206 204 204 205 208
6 95 14 357 340 302 352 11 28 46 53 46 44 66 80 74 71 84 92 91 91 93 92 95 98 94 88 87 88 84 77 72 69 68 70 68 61 54 49 47 44 39 42 53 72 96 93 93 250 247 246 253 262 261 254 249 243 228 212 207 202 196 192 190 188 187 185 184 185 186 186 187 188 187 187 192 198 200 198 196 199 203 203 202 205 208 212
201 238 298 319 18 22 352 16 38 58 71 63 43 45 71 83 81 83 89 89 87 86 86 88 92 91 88 90 93 89 82 76 73 71 71 72 67 59 55 56 54 49 42 27 1 8 58 298 266 262 256 259 270 274 266 256 242 215 192 188 188 184 181 179 175 174 173 174 178 181 180 181 181 178 175 176 180 184 185 181 181 185 190 196 204 208 206
245 280 271 250 114 72 31 43 57 70 84 84 67 47 64 84 89 89 89 87 84 84 84 84 86 88 88 88 90 89 85 80 77 75 73 71 68 64 63 64 62 60 59 56 52 56 60 253 246 243 250 258 256 244 236 237 228 207 183 174 175 175 174 173 172 172 172 171 173 173 170 170 173 172 167 164 163 165 169 171 174 180 187 194 197 193 184
245 264 216 173 140 108 81 75 78 80 84 88 86 76 74 85 93 94 92 88 84 83 82 81 82 84 86 86 85 85 85 82 79 79 77 76 76 74 71 69 67 65 65 67 73 80 81 76 101 158 180 193 189 178 179 194 204 195 182 177 178 177 175 175 177 180 178 174 171 170 171 173 175 172 167 163 162 162 165 170 177 185 189 189 183 174 169
225 190 162 153 145 132 111 96 95 95 92 92 94 90 80 84 95 97 94 91 87 82 79 79 80 82 84 85 84 84 84 83 82 81 78 76 76 75 73 73 73 71 69 70 73 80 86 88 93 118 145 156 155 152 154 160 170 173 174 177 181 184 182 178 176 176 175 172 173 175 178 177 175 170 166 166 166 165 167 172 177 178 177 174 171 171 174
173 156 145 135 132 136 131 109 106 111 111 109 107 103 91 84 94 98 97 95 93 88 83 82 81 81 83 85 84 84 84 82 81 79 76 75 74 74 74 77 80 76 72 71 73 76 80 85 96 111 122 127 134 142 147 152 159 165 167 166 167 170 173 173 172 171 170 168 168 169 170 170 169 166 165 167 169 171 174 176 176 173 171 171 171 174 177
154 149 149 141 127 125 128 121 116 121 122 113 109 110 108 101 101 101 98 96 95 93 91 89 86 84 85 87 85 83 80 78 78 77 76 76 77 78 78 79 81 79 74 72 73 74 71 71 87 107 110 106 109 122 138 153 161 163 162 154 147 150 160 169 170 167 162 160 161 162 164 165 165 164 166 169 174 176 178 178 176 175 174 175 176 176 179
145 137 134 131 121 114 119 126 124 122 119 111 106 108 109 106 102 98 94 94 95 95 92 89 86 85 86 88 86 82 77 77 77 79 80 80 82 83 83 83 84 82 77 74 74 76 76 73 76 88 95 95 105 126 146 162 162 156 151 144 139 142 151 160 162 160 159 159 162 163 165 165 165 164 166 170 175 178 178 177 176 176 177 179 181 180 179
129 128 125 122 116 114 116 113 104 103 108 110 103 98 102 109 106 98 95 95 96 94 92 90 89 87 85 85 86 86 85 84 83 84 84 83 81 81 81 83 83 79 73 70 71 75 79 79 78 81 88 95 119 150 161 160 155 148 141 138 139 145 152 156 158 158 159 160 162 165 166 166 167 167 167 167 170 176 178 176 174 174 176 180 184 184 181
120 124 125 121 117 117 113 102 93 91 93 95 94 93 99 104 100 94 94 98 99 99 96 92 89 87 84 84 87 91 95 96 94 91 87 82 79 77 74 74 76 74 70 68 67 69 75 79 80 83 91 103 132 156 157 147 141 139 136 136 141 147 151 154 155 156 158 161 164 167 166 164 164 167 167 166 170 175 176 172 173 176 178 181 184 185 185
112 108 109 110 110 110 107 101 100 105 109 102 94 88 87 88 87 86 88 91 94 96 92 87 86 84 82 85 90 94 96 98 99 99 95 90 86 82 77 75 77 78 77 73 69 67 70 74 77 80 89 106 132 147 145 138 134 133 131 132 134 137 143 147 148 147 149 153 157 161 162 161 163 167 170 172 176 179 177 173 174 178 183 186 188 189 191
98 94 96 104 109 108 101 95 97 107 121 119 103 90 85 82 80 80 81 83 85 86 84 83 83 79 74 76 83 92 98 100 99 98 97 96 96 94 90 85 80 79 79 77 73 70 68 69 74 82 85 94 116 134 141 140 134 127 124 125 124 123 125 130 134 134 135 137 143 150 155 157 160 165 168 171 173 174 171 168 170 175 181 188 193 194 193
82 86 93 105 111 110 106 102 98 99 104 109 104 94 86 80 74 73 75 79 83 84 87 90 89 82 73 69 70 80 95 99 95 93 94 96 98 100 101 98 91 85 83 81 77 71 64 61 66 79 92 103 114 127 137 138 132 128 126 124 122 121 119 118 119 121 122 126 133 141 146 148 148 151 154 155 156 157 158 159 164 171 175 178 183 188 190
86 90 98 105 108 104 100 100 99 96 93 92 90 86 84 82 79 75 73 73 73 75 82 93 93 83 74 68 69 74 81 82 81 80 83 91 95 98 104 109 106 97 88 82 76 68 60 56 57 64 84 109 120 125 131 133 133 134 133 131 129 127 124 120 117 116 117 123 131 138 142 145 146 148 150 152 155 158 160 165 174 181 180 177 179 183 185
109 111 111 111 112 107 99 96 96 95 92 89 86 84 83 82 81 80 78 78 78 79 85 96 96 84 74 70 70 73 75 78 79 75 70 71 75 80 94 109 109 101 91 83 75 65 55 49 44 45 59 90 118 131 135 133 134 136 136 135 134 133 132 134 137 138 143 150 153 155 159 162 164 165 168 173 175 173 172 177 189 195 196 193 189 186 185
121 123 117 108 105 105 104 102 99 95 91 88 86 84 82 80 80 81 83 83 84 84 87 93 96 89 80 75 72 70 68 72 78 79 72 66 64 66 70 72 76 85 88 75 60 53 62 61 41 30 31 49 88 120 130 133 142 149 148 146 146 147 153 165 174 174 172 172 174 178 179 176 175 178 182 184 184 181 179 183 191 196 197 195 190 186 185
106 109 110 105 101 99 101 102 100 95 91 89 88 85 84 84 84 86 88 87 85 84 85 90 93 90 82 75 72 69 67 70 76 78 78 75 75 79 77 69 64 70 74 59 37 25 23 185 15 1 345 349 17 96 119 127 146 158 162 172 178 177 174 174 175 176 176 175 176 179 180 179 181 184 184 181 179 176 177 183 187 186 180 176 172 169 169
95 99 102 101 99 97 95 94 93 90 89 88 87 85 85 87 87 87 88 86 83 81 81 85 86 83 77 73 72 72 72 73 75 76 77 77 78 79 75 66 60 62 68 65 57 65 90 77 27 30 319 304 299 268 225 209 205 202 198 193 188 184 181 180 181 181 180 179 178 178 180 183 184 179 174 169 170 171 174 177 177 172 167 167 167 164 162
92 93 92 91 91 91 89 87 87 88 89 89 86 82 81 82 83 84 83 81 79 78 78 78 77 75 73 73 74 76 74 71 70 72 75 77 76 74 70 64 58 55 58 64 85 108 111 98 86 94 111 139 194 199 191 179 179 186 190 189 185 183 185 189 191 190 188 185 181 177 178 178 176 172 169 166 165 167 170 171 170 168 168 168 167 162 157
89 88 88 89 88 88 88 88 88 88 88 86 83 79 77 77 78 78 77 78 79 79 78 76 75 75 74 74 75 75 74 72 71 73 75 74 73 71 68 63 57 51 49 51 72 111 113 101 99 110 115 117 138 170 174 164 164 173 180 182 180 181 188 198 204 202 190 176 167 169 174 173 167 166 167 166 163 166 170 172 174 177 179 176 169 161 158
87 86 87 88 87 86 86 85 85 85 85 84 83 80 77 76 78 80 81 82 81 80 79 77 75 73 73 73 74 73 72 71 71 71 70 67 65 62 61 59 55 50 48 47 49 68 92 85 83 106 118 116 117 142 170 165 160 168 178 184 190 196 196 193 182 171 164 158 157 165 173 173 170 169 171 171 173 178 181 179 180 182 182 179 175 172 171
89 87 85 84 84 83 81 79 78 79 80 80 82 81 78 77 79 81 81 82 81 79 79 78 76 75 74 74 73 72 70 68 67 67 66 64 60 56 54 54 52 49 46 44 41 41 48 51 46 47 57 81 99 104 105 91 74 76 108 150 151 159 155 139 132 144 159 164 165 170 174 176 177 178 176 173 175 181 182 180 182 183 181 180 182 185 190
88 86 82 80 79 78 76 75 75 74 75 78 81 79 78 80 83 83 82 81 81 81 80 79 79 80 80 78 76 74 70 67 66 65 63 62 59 55 51 52 54 52 51 50 47 45 47 54 59 60 60 62 77 101 110 100 87 93 124 142 129 131 136 134 144 165 178 181 182 184 184 183 181 178 172 169 171 179 184 185 184 185 186 190 193 195 198
83 82 80 79 76 74 74 74 74 74 76 81 81 76 76 81 86 87 85 84 83 83 83 82 83 83 83 80 77 75 73 70 67 63 60 59 57 52 49 52 56 56 57 58 57 53 50 49 56 73 80 78 77 85 93 92 93 103 116 125 142 158 161 160 166 178 182 186 192 195 191 185 182 180 180 182 184 188 192 194 192 186 182 179 176 177 181
79 79 77 75 74 73 74 73 72 72 75 78 79 81 85 89 89 87 84 82 81 80 80 82 84 87 88 85 80 78 79 78 73 68 66 68 67 62 57 57 58 57 58 60 58 53 50 47 47 71 90 83 74 68 70 79 92 96 85 84 113 149 160 168 187 191 183 177 183 190 190 191 192 191 191 191 188 184 186 190 190 185 178 175 175 180 187
77 76 75 73 72 72 72 70 68 70 74 77 79 82 86 89 89 86 84 83 82 80 79 79 81 83 85 85 82 81 85 86 82 75 71 71 70 66 62 59 58 57 60 61 58 52 50 50 54 66 81 73 60 58 64 73 82 85 83 90 108 119 104 85 128 177 181 182 188 196 196 197 200 200 196 191 184 182 184 186 186 188 193 202 214 230 238
76 74 74 73 72 71 69 67 66 69 73 76 78 79 81 82 82 81 81 82 83 81 80 80 79 78 78 78 76 77 81 85 84 79 73 68 64 62 60 57 53 48 48 53 54 48 43 44 51 60 69 60 45 44 48 54 62 72 78 85 95 108 118 109 90 95 146 184 203 215 210 196 188 190 193 192 189 189 191 194 199 211 224 232 239 248 254
74 73 73 73 71 69 68 66 65 67 70 72 72 72 73 73 70 68 69 75 78 77 73 72 70 70 71 71 69 68 71 77 81 80 76 69 62 57 53 50 47 41 37 41 47 44 38 35 38 44 50 51 44 38 32 28 32 46 62 70 75 84 100 112 113 120 141 159 172 189 201 198 191 191 196 199 199 197 199 207 219 227 230 231 237 248 257
69 68 67 66 65 65 65 65 65 68 71 72 71 70 69 67 64 59 55 55 60 62 61 60 58 56 56 58 61 62 63 69 75 76 73 68 64 60 56 56 57 53 45 43 44 42 37 33 33 35 37 38 36 30 21 13 10 8 12 26 48 61 74 93 116 137 153 160 162 164 176 193 205 211 213 215 216 217 221 228 231 233 236 240 243 247 250
62 62 62 63 62 63 62 62 62 63 63 63 63 62 62 66 71 70 60 50 47 48 51 56 56 51 45 46 51 51 48 49 53 55 54 55 56 56 55 56 59 59 56 55 53 49 44 40 38 37 35 34 34 35 29 16 4 356 351 343 336 334 349 39 107 128 142 156 169 175 179 185 193 200 204 208 213 221 231 239 243 246 250 252 249 245 245
62 64 67 67 65 63 61 58 56 55 54 53 53 53 51 53 61 67 65 61 62 61 57 56 58 55 47 43 45 45 41 38 38 38 37 35 32 28 29 34 38 38 38 39 42 46 48 45 42 40 37 34 35 36 32 23 12 2 356 353 346 331 318 306 291 267 215 185 183 185 182 181 186 191 192 192 196 203 214 225 233 238 240 239 237 237 240